DW7857 Weather Reports


time (UTC)temp
C
wind
direction
speed
KPH
gust
KPH
rain 1hr
cm
rain 24hr
cm
rain mn
cm
humidity
%
barometer
mb
20260831042703 14 185 9.7 9.7 0.00 0.56 0.03 85 1003.4
20260831041803 14 180 9.7 9.7 0.00 0.56 0.03 86 1003.2
20260831040903 14 190 9.7 12.9 0.00 0.56 0.03 86 1003.2
20260831040217 14 237 8.0 11.3 0.00 0.56 0.03 86 1003.0
20260831035403 14 272 8.0 11.3 0.00 0.56 0.03 86 1003.1
20260831034716 14 210 8.0 11.3 0.00 0.56 0.03 86 1003.0
20260831033603 13 231 4.8 11.3 0.00 0.56 0.03 86 1003.1
20260831032917 14 183 6.4 11.3 0.00 0.56 0.03 86 1003.0
20260831031803 14 245 6.4 8.0 0.00 0.56 0.03 86 1003.1
20260831030903 13 127 4.8 8.0 0.00 0.56 0.03 86 1003.3
20260831030003 13 147 6.4 9.7 0.00 0.56 0.03 87 1003.0
20260831025403 13 129 6.4 9.7 0.00 0.56 0.03 87 1002.8
20260831024503 13 190 6.4 9.7 0.00 0.56 0.03 87 1003.0
20260831023603 13 205 6.4 9.7 0.00 0.56 0.03 87 1002.7
20260831022703 13 332 4.8 6.4 0.00 0.56 0.03 87 1002.4
20260831021803 13 143 6.4 12.9 0.00 0.56 0.03 87 1002.4
20260831020903 13 159 4.8 12.9 0.00 0.56 0.03 87 1002.3
20260831020003 13 176 6.4 9.7 0.00 0.56 0.03 87 1002.5
20260831015403 13 185 4.8 6.4 0.00 0.56 0.03 87 1002.2
20260831014503 13 174 6.4 8.0 0.00 0.56 0.03 87 1002.1
20260831013603 13 168 6.4 9.7 0.00 0.56 0.03 87 1002.4
20260831012703 13 176 6.4 11.3 0.00 0.56 0.03 87 1002.1
20260831011803 13 159 4.8 6.4 0.00 0.56 0.03 87 1002.1
20260831010903 13 170 6.4 9.7 0.00 0.56 0.03 87 1002.0
20260831010003 13 183 6.4 9.7 0.00 0.56 0.03 87 1002.0
20260831005403 13 187 6.4 9.7 0.00 0.56 0.03 87 1001.8
20260831004718 13 168 6.4 11.3 0.00 0.56 0.03 86 1002.0
20260831003603 13 142 4.8 8.0 0.00 0.56 0.03 86 1001.7
20260831002918 14 214 8.0 14.5 0.00 0.56 0.03 87 1001.7
20260831002017 13 220 6.4 14.5 0.00 0.56 0.03 87 1001.8
20260831001117 14 140 4.8 8.0 0.03 0.56 0.03 87 1001.5
20260831000003 14 153 6.4 11.3 0.03 0.56 0.03 86 1001.2
20260830235403 14 154 6.4 11.3 0.03 0.56 0.03 85 1001.2
20260830234503 14 156 3.2 6.4 0.03 0.56 0.03 84 1001.2
20260830233603 14 198 6.4 9.7 0.03 0.56 0.03 84 1001.0
20260830232703 14 215 8.0 12.9 0.03 0.56 0.03 85 1001.0
20260830231803 15 213 8.0 11.3 0.03 0.56 0.03 86 1001.1
20260830230903 15 202 6.4 8.0 0.00 0.53 0.00 88 1001.0
20260830230004 15 132 4.8 8.0 0.00 0.53 0.00 88 1001.2
20260830225403 15 55 3.2 6.4 0.00 0.53 0.53 87 1000.8
20260830224503 15 169 4.8 6.4 0.00 0.53 0.53 87 1000.9
20260830223818 15 206 6.4 16.1 0.00 0.53 0.53 88 1001.1
20260830222703 15 215 6.4 11.3 0.00 0.53 0.53 88 1000.9
20260830222017 15 265 8.0 12.9 0.00 0.53 0.53 89 1001.0
20260830220903 15 156 8.0 12.9 0.00 0.53 0.53 89 1000.5
20260830220003 15 220 6.4 12.9 0.00 0.53 0.53 89 1000.5
20260830215617 15 254 6.4 12.9 0.00 0.53 0.53 89 1000.4
20260830214503 16 183 9.7 12.9 0.00 0.53 0.53 89 1000.1
20260830213603 16 181 11.3 14.5 0.00 0.53 0.53 89 1000.2
20260830212703 16 199 9.7 16.1 0.00 0.53 0.53 89 1000.0
20260830211803 16 189 8.0 9.7 0.00 0.53 0.53 90 1000.1
20260830211118 16 194 9.7 12.9 0.00 0.53 0.53 89 1000.2
20260830210003 16 160 8.0 16.1 0.00 0.53 0.53 88 1000.3
20260830205403 16 195 9.7 17.7 0.00 0.53 0.53 88 1000.3
20260830204503 16 185 12.9 25.7 0.00 0.53 0.53 88 1000.5
20260830203603 16 196 12.9 25.7 0.00 0.53 0.53 88 1000.3
20260830202703 16 196 11.3 16.1 0.00 0.53 0.53 89 1000.7
20260830201803 16 198 11.3 17.7 0.00 0.53 0.53 90 1001.0
20260830200903 16 190 8.0 14.5 0.00 0.53 0.53 90 1000.6
20260830200003 16 207 9.7 12.9 0.28 0.53 0.53 91 1001.0
20260830195403 16 247 11.3 17.7 0.33 0.53 0.53 91 1001.0
20260830194717 16 197 9.7 12.9 0.33 0.53 0.53 92 1001.0
20260830193817 15 149 9.7 12.9 0.33 0.53 0.53 92 1000.9
20260830192703 15 169 8.0 12.9 0.33 0.53 0.53 90 1001.0
20260830191803 15 192 9.7 14.5 0.33 0.53 0.53 89 1000.9
20260830190903 16 246 6.4 12.9 0.33 0.53 0.53 87 1000.8
20260830190003 16 207 11.3 19.3 0.05 0.28 0.28 84 1000.9
20260830185403 16 168 12.9 19.3 0.00 0.20 0.20 82 1000.9
20260830184503 16 148 12.9 22.5 0.00 0.20 0.20 81 1001.0
20260830183603 16 154 14.5 22.5 0.00 0.20 0.20 80 1000.8
20260830182703 17 174 11.3 17.7 0.00 0.20 0.20 79 1001.1
20260830181803 17 166 12.9 17.7 0.00 0.20 0.20 77 1001.0
20260830180903 17 173 11.3 20.9 0.00 0.20 0.20 72 1001.1
20260830180003 17 227 11.3 14.5 0.00 0.20 0.20 73 1001.1
20260830175617 17 222 12.9 17.7 0.00 0.20 0.20 73 1001.2
20260830174503 17 189 11.3 16.1 0.00 0.20 0.20 82 1001.0
20260830173603 17 196 17.7 27.4 0.00 0.20 0.20 84 1000.9
20260830172703 17 222 20.9 27.4 0.00 0.20 0.20 80 1001.3
20260830171846 17 225 4.8 29.0 0.00 0.20 0.20 81 1001.0
20260830165403 17 194 16.1 25.7 0.00 0.20 0.20 81 1001.5
20260830164503 17 179 17.7 25.7 0.00 0.20 0.20 80 1001.5
20260830163603 18 180 22.5 30.6 0.00 0.20 0.20 80 1001.6
20260830162703 18 200 20.9 32.2 0.00 0.20 0.20 78 1001.5
20260830162018 18 201 19.3 27.4 0.00 0.20 0.20 79 1002.0
20260830160903 18 210 17.7 27.4 0.00 0.20 0.20 80 1002.0
20260830160217 18 199 17.7 27.4 0.00 0.20 0.20 80 1001.6
20260830155403 18 195 16.1 24.1 0.00 0.20 0.20 81 1001.9
20260830154503 18 201 17.7 30.6 0.00 0.20 0.20 79 1001.9
20260830153603 18 187 19.3 25.7 0.00 0.20 0.20 78 1002.0
20260830152703 18 188 19.3 25.7 0.00 0.20 0.20 78 1002.1
20260830151803 18 180 17.7 27.4 0.00 0.20 0.20 79 1002.0
20260830150903 18 217 14.5 19.3 0.00 0.20 0.20 80 1002.2
20260830150003 18 207 16.1 25.7 0.00 0.20 0.20 80 1002.7
20260830145403 18 204 12.9 19.3 0.00 0.20 0.20 80 1002.7
20260830144718 18 189 14.5 20.9 0.03 0.20 0.20 78 1002.7
20260830143603 18 186 17.7 25.7 0.03 0.20 0.20 76 1002.7
20260830142703 18 177 19.3 29.0 0.03 0.20 0.20 75 1003.0
20260830142017 18 170 20.9 29.0 0.03 0.20 0.20 75 1003.1
20260830141117 19 225 14.5 27.4 0.03 0.20 0.20 74 1003.2
20260830140003 19 185 20.9 32.2 0.03 0.20 0.20 72 1003.4
20260830135618 19 184 20.9 27.4 0.03 0.20 0.20 72 1003.3
20260830134503 19 181 19.3 27.4 0.00 0.18 0.18 72 1003.5
20260830133603 19 161 20.9 33.8 0.00 0.18 0.18 72 1003.6
20260830132703 20 169 19.3 30.6 0.00 0.18 0.18 71 1003.7
20260830131803 20 178 16.1 19.3 0.00 0.18 0.18 71 1003.6
20260830130903 19 171 17.7 29.0 0.00 0.18 0.18 73 1003.4
20260830130218 19 212 20.9 29.0 0.00 0.18 0.18 73 1003.4
20260830125403 18 178 17.7 27.4 0.00 0.18 0.18 74 1003.5
20260830124503 18 192 19.3 29.0 0.00 0.18 0.18 74 1003.7
20260830123603 19 176 22.5 27.4 0.00 0.18 0.18 72 1004.0
20260830122703 20 229 20.9 27.4 0.00 0.18 0.18 71 1003.8
20260830122017 20 190 19.3 27.4 0.00 0.18 0.18 72 1003.6
20260830120903 19 174 19.3 24.1 0.03 0.18 0.18 75 1003.7
20260830120003 19 174 14.5 22.5 0.18 0.18 0.18 76 1003.9
20260830115403 19 195 16.1 22.5 0.18 0.18 0.18 76 1003.7
20260830114503 19 184 11.3 19.3 0.18 0.18 0.18 81 1003.7
20260830113603 18 182 11.3 17.7 0.18 0.18 0.18 81 1003.9
20260830112703 17 182 12.9 17.7 0.18 0.18 0.18 80 1004.1
20260830112016 18 253 14.5 20.9 0.18 0.18 0.18 77 1004.0
20260830110903 18 208 16.1 20.9 0.15 0.15 0.15 73 1004.1
20260830110004 19 165 17.7 29.0 0.00 0.00 0.00 73 1004.2
20260830105403 19 157 17.7 24.1 0.00 0.00 0.00 72 1004.2
20260830104503 20 164 14.5 19.3 0.00 0.00 0.00 73 1004.1
20260830103817 19 163 12.9 19.3 0.00 0.00 0.00 77 1004.2
20260830102703 18 164 12.9 24.1 0.00 0.00 0.00 81 1004.5
20260830101803 18 203 12.9 20.9 0.00 0.00 0.00 80 1004.5
20260830100903 18 189 11.3 16.1 0.00 0.00 0.00 80 1004.3
20260830100003 18 169 12.9 24.1 0.00 0.00 0.00 81 1004.5
20260830094503 18 176 12.9 24.1 0.00 0.00 0.00 78 1004.7
20260830093603 18 211 11.3 16.1 0.00 0.00 0.00 79 1004.9
20260830092703 18 105 9.7 17.7 0.00 0.00 0.00 81 1004.7
20260830092016 18 197 8.0 16.1 0.00 0.00 0.00 86 1004.7
20260830090903 17 170 8.0 12.9 0.00 0.00 0.00 91 1004.7
20260830090004 16 164 8.0 11.3 0.00 0.00 0.00 91 1004.8
20260830085616 16 153 8.0 11.3 0.00 0.00 0.00 91 1005.1
20260830084718 16 183 11.3 96.6 0.00 0.00 0.00 90 1005.0
20260830083603 16 217 14.5 17.7 0.00 0.00 0.00 86 1004.7
20260830082703 17 180 8.0 14.5 0.00 0.00 0.00 82 1004.9
20260830081803 17 211 6.4 8.0 0.00 0.00 0.00 84 1005.0
20260830080903 17 165 4.8 6.4 0.00 0.00 0.00 85 1004.7
20260830080003 17 157 4.8 4.8 0.00 0.00 0.00 88 1005.0
20260830075403 17 205 3.2 4.8 0.00 0.00 0.00 89 1004.6
20260830074503 17 212 4.8 6.4 0.00 0.00 0.00 93 1005.0
20260830073603 17 179 3.2 6.4 0.00 0.00 0.00 93 1005.0
20260830072918 16 156 3.2 4.8 0.00 0.00 0.00 93 1004.6
20260830071803 16 149 3.2 6.4 0.00 0.00 0.00 93 1004.8
20260830070903 15 183 3.2 4.8 0.00 0.00 0.00 93 1004.9
20260830070003 15 172 3.2 4.8 0.00 0.00 0.00 93 1004.7
20260830065403 15 144 3.2 3.2 0.00 0.00 0.00 93 1004.7
20260830064503 15 134 1.6 3.2 0.00 0.00 0.00 94 1004.6
20260830063603 15 174 3.2 4.8 0.00 0.00 0.00 94 1004.8
20260830062703 15 149 1.6 3.2 0.00 0.00 0.00 95 1005.0
20260830061803 15 166 1.6 4.8 0.00 0.00 0.00 95 1004.7
20260830060903 15 175 3.2 4.8 0.00 0.00 0.00 95 1004.8
20260830060003 14 181 4.8 6.4 0.00 0.00 0.00 95 1004.6
20260830055618 14 183 4.8 6.4 0.00 0.00 0.00 95 1004.6
20260830054503 14 152 3.2 4.8 0.00 0.00 0.00 95 1004.7
20260830053818 13 174 3.2 4.8 0.00 0.00 0.00 94 1004.5
20260830052917 13 177 4.8 4.8 0.00 0.00 0.00 94 1004.8
20260830051803 13 179 3.2 4.8 0.00 0.00 0.00 93 1004.7
20260830050903 13 174 3.2 4.8 0.00 0.00 0.00 92 1004.8
20260830050003 13 108 0.0 3.2 0.00 0.00 0.00 91 1004.5
20260830045403 13 122 1.6 3.2 0.00 0.00 0.00 91 1004.7
20260830044503 13 157 1.6 3.2 0.00 0.00 0.00 91 1004.8
20260830043603 13 157 1.6 3.2 0.00 0.00 0.00 91 1004.9